This is the latest recevied weather packets stored in our database for station/object K7AEL. If no packets are shown the sender has not sent any weather packets the latest 10 day(s).
| Time | Temp. | Humidity | Pressure | Rain* | Wind** | Luminosity | Snow |
|---|---|---|---|---|---|---|---|
| 1777467868 | 15.56° C | 28% | 1016.9 hPa | 0 mm | - | 13 W/m² | - |
| 1777467564 | 15° C | 30% | 1016.9 hPa | 0 mm | - | 9 W/m² | - |
| 1777467259 | 15° C | 30% | 1017 hPa | 0 mm | - | 7 W/m² | - |
| 1777466956 | 15° C | 31% | 1016.8 hPa | 0 mm | - | 4 W/m² | - |
| 1777466654 | 15° C | 31% | 1016.7 hPa | 0 mm | - | 2 W/m² | - |
| 1777466350 | 15.56° C | 30% | 1016.6 hPa | 0 mm | - | 1 W/m² | - |
| 1777466046 | 15.56° C | 29% | 1016.5 hPa | 0 mm | - | 1 W/m² | - |
| 1777465743 | 15.56° C | 29% | 1016.4 hPa | 0 mm | - | 0 W/m² | - |
| 1777465439 | 15.56° C | 29% | 1016.5 hPa | 0 mm | - | 0 W/m² | - |
| 1777465137 | 15.56° C | 29% | 1016.6 hPa | 0 mm | - | 0 W/m² | - |
| 1777464833 | 15.56° C | 29% | 1016.6 hPa | 0 mm | - | 0 W/m² | - |
| 1777464528 | 15.56° C | 28% | 1016.5 hPa | 0 mm | - | 0 W/m² | - |
| 1777464224 | 15.56° C | 27% | 1016.5 hPa | 0 mm | - | 0 W/m² | - |
| 1777463919 | 15.56° C | 27% | 1016.5 hPa | 0 mm | - | 0 W/m² | - |
| 1777463615 | 16.11° C | 26% | 1016.5 hPa | 0 mm | - | 0 W/m² | - |
| 1777463310 | 16.11° C | 25% | 1016.6 hPa | 0 mm | - | 0 W/m² | - |
| 1777463006 | 16.67° C | 25% | 1016.8 hPa | 0 mm | - | 0 W/m² | - |
| 1777462702 | 16.67° C | 24% | 1016.5 hPa | 0 mm | - | 0 W/m² | - |
| 1777462397 | 16.67° C | 24% | 1017 hPa | 0 mm | - | 0 W/m² | - |
| 1777462094 | 17.22° C | 24% | 1016.9 hPa | 0 mm | - | 0 W/m² | - |
| 1777461791 | 17.22° C | 24% | 1016.8 hPa | 0 mm | - | 0 W/m² | - |
| 1777461486 | 17.22° C | 24% | 1016.8 hPa | 0 mm | - | 0 W/m² | - |
| 1777461183 | 17.22° C | 24% | 1016.7 hPa | 0 mm | - | 0 W/m² | - |
| 1777460877 | 17.78° C | 24% | 1016.8 hPa | 0 mm | - | 0 W/m² | - |
| 1777460574 | 17.78° C | 24% | 1016.7 hPa | 0 mm | - | 0 W/m² | - |
* Rain latest hour (hover to see other rain measurements)
** Current wind speed in m/s (hover to see current wind gust speed)